{"data":{"norad_id":67467,"intl_designator":"2026-008Y","name":"STARLINK-36425","alt_names":[],"object_type":"PAYLOAD","status":"ACTIVE","operator":null,"country":"US","launch_date":"2026-01-14","launch_site_code":"AFETR","launch_vehicle":null,"mission":null,"orbit_class":"UNKNOWN","rcs_meters":null,"size_class":null,"mass_kg":null,"dimensions":null,"purposes":["comms"],"wikipedia_slug":null,"has_3d_model":false,"image_url":null,"decayed_at":null,"tle_current":{"epoch":"2026-05-25T00:35:28.629024Z","epoch_age_seconds":66793,"freshness":"FRESH","line1":"1 67467U 26008Y   26145.02463691  .00010110  00000+0  37627-3 0  9995","line2":"2 67467  43.0014 134.3953 0001354 272.2593  87.8104 15.27592358 21249","mean_motion":15.27592358,"eccentricity":0.0001354,"inclination_deg":43.0014,"raan_deg":134.3953,"arg_perigee_deg":272.2593,"mean_anomaly_deg":87.8104,"bstar":0.00037627,"rev_number":2124,"period_min":94.265986109365,"perigee_km":482.0830924043,"apogee_km":483.94109157841,"semimajor_km":6861.1490919914,"source":"CELESTRAK","updated_at":"2026-05-25T13:38:21.564133Z"}}}